Skip Page Navigation
NASA JPL Caltech
NASA Logo - Jet Propulsion Laboratory + View the NASA Portal
+ Center for Near-Earth Object Studies
JPL Home Earth Solar System Stars & Galaxies Technology
JPL Solar System Dynamics
BODIES ORBITS EPHEMERIDES TOOLS PHYSICAL DATA DISCOVERY FAQ SITE MAP
IMPORTANT: The SSD Announcement email list is now available. Major changes are coming in the near future, including possible hostname and/or URL changes. To be notified of such changes, subscribe to this email list.

Please visit this page for more details.


JPL Small-Body Database Browser
Search: [ help ]  
379479 (2010 EH10)
Classification: Main-belt Asteroid          SPK-ID: 2379479
Ephemeris | Orbit Diagram | Orbital Elements | Mission Design | Physical Parameters | Discovery Circumstances ]

[ show orbit diagram ]
Orbital Elements at Epoch 2459000.5 (2020-May-31.0) TDB
Reference: JPL 12 (heliocentric ecliptic J2000)
 Element Value Uncertainty (1-sigma)   Units 
e .1371762494628542 8.2367e-08  
a 2.616247209147545 3.0574e-08 au
q 2.257360229329025 2.2323e-07 au
i 7.869964961254245 6.9646e-06 deg
node 269.2868049894957 8.5247e-05 deg
peri 157.2417628691449 0.00010704 deg
M 180.2627906717909 6.4235e-05 deg
tp 2459772.206374374435
(2022-Jul-11.70637437)
0.00028337 TDB
period 1545.669345892056
4.23
2.7094e-05
7.418e-08
d
yr
n .2329088048208864 4.0827e-09 deg/d
Q 2.975134188966065 3.4768e-08 au
  Orbit Determination Parameters
   # obs. used (total)      118  
   data-arc span      5333 days (14.60 yr)  
   first obs. used      2004-08-20  
   last obs. used      2019-03-28  
   planetary ephem.      DE431  
   SB-pert. ephem.      SB431-N16  
   condition code      0  
   norm. resid. RMS      .56787  
   source      ORB  
   producer      Otto Matic  
   solution date      2019-Jul-14 13:21:43  

Additional Information
 Earth MOID = 1.27379 au 
 Jupiter MOID = 2.30744 au 
 T_jup = 3.380 
[ show covariance matrix ]

Ephemeris | Orbit Diagram | Orbital Elements | Mission Design | Physical Parameters | Discovery Circumstances ]

Physical Parameter Table
Parameter Symbol Value Units Sigma Reference Notes
absolute magnitude H 16.9   n/a MPO434347  
diameter diameter 2.290 km 0.506 urn:nasa:pds:neowise_diameters_albedos::2.0[mainbelt] (http://adsabs.harvard.edu/abs/2011ApJ...741...68M)  
geometric albedo albedo 0.064   0.037 urn:nasa:pds:neowise_diameters_albedos::2.0[mainbelt] (http://adsabs.harvard.edu/abs/2011ApJ...741...68M)  

379479 (2010 EH10)          Discovered 2010-Mar-04 by WISE at WISE
Reference: Last Updated: 2013-11-20

Alternate Designations
 2010 EH10 = 2005 YQ179 
Ephemeris | Orbit Diagram | Orbital Elements | Mission Design | Physical Parameters | Discovery Circumstances ]
ABOUT SSD CREDITS/AWARDS PRIVACY/COPYRIGHT GLOSSARY LINKS
FirstGov 2020-May-31 17:08 UT
(server date/time)  
NASA Home Page
Site Manager:   Ryan S. Park
Webmaster  Alan B. Chamberlin